Tracking 29892 objects as of 21-Nov-2024
HD Live streaming from Space Station
objects crossing your sky now

ERS 1 DEB

Track ERS 1 DEB now!
10-day predictions


NORAD ID: 35262
Int'l Code: 1991-050R
Perigee: 673.8 km
Apogee: 699.9 km
Inclination: 98.5 °
Period: 98.3 minutes
Semi major axis: 7057 km
RCS: 0.0171 m2 (small)
Launch date: July 17, 1991
Source: European Space Agency (ESA)
Launch site: FRENCH GUIANA (FRGUI)

Note: This is SATELLITE DEBRIS
Your satellite tracking list
Your tracking list is empty




NASA's NSSDC Master Catalog

Two Line Element Set (TLE):
1 35262U 91050R   24325.68739990  .00010448  00000-0  19882-2 0  9997
2 35262  98.4642 321.7115 0018486  37.6723  22.7290 14.64174430754965
Source of the keplerian elements: AFSPC